Tekamah, NE

2:37 AM CST on February 25, 2018 (GMT -0600)
Tekamah

Weather History for KTQE - September, 2013

Change the Weather History Date:

Wednesday, September 25, 2013

  Actual Average Record
Temperature  
Mean Temperature 64 °F -  
Max Temperature 81 °F 72 °F 93 °F (1998)
Min Temperature 48 °F 46 °F 32 °F (1975)
Growing Degree Days 14 (Base 50)    
Moisture  
Dew Point 53 °F    
Average Humidity 79    
Maximum Humidity 96    
Minimum Humidity 41    
Precipitation  
Precipitation 0.00 in - - ()
Sea Level Pressure  
Sea Level Pressure 29.86 in    
Wind  
Wind Speed 5 mph (East)    
Max Wind Speed 15 mph    
Max Gust Speed 22 mph    
Visibility 6 miles    
Events Fog    
Averages and records for this station are not official NWS values.
T = Trace of Precipitation, MM = Missing Value Source: NWS Daily Summary

Daily Weather History Graph

Daily Weather History Graph

Search for Another Location

Airport or City:

Trip Planner

Search our weather history database for the weather conditions in past years. The results will help you decide how hot, cold, wet, or windy it might be!

Date:

Astronomy

Sep. 25, 2013 Rise Set
Actual Time 7:15 AM CDT 7:16 PM CDT
Civil Twilight 6:47 AM CDT 7:43 PM CDT
Nautical Twilight 6:15 AM CDT 8:16 PM CDT
Astronomical Twilight 5:42 AM CDT 8:49 PM CDT
Moon 11:19 PM CDT 1:26 PM CDT
Length of Visible Light 12h 56m
Length of Day
12h 00m
Waning Gibbous, 64% of the Moon is Illuminated
Sep 25
Waning Gibbous
Sep 26
Last Quarter
Oct 4
New
Oct 11
First Quarter
Oct 18
Full

Hourly Weather History & Observations

Time (CDT) Temp. Heat Index Dew Point Humidity Pressure Visibility Wind Dir Wind Speed Gust Speed Precip Events Conditions
12:54 AM 52.0 °F - 48.9 °F 89% 29.90 in 6.0 mi Calm Calm - N/A   Clear
1:54 AM 51.1 °F - 48.0 °F 89% 29.90 in 9.0 mi Calm Calm - N/A   Clear
2:54 AM 51.1 °F - 48.9 °F 92% 29.89 in 6.0 mi NNW 6.9 mph - N/A   Clear
3:16 AM 51.8 °F - 50.0 °F 94% 29.92 in 5.0 mi NNW 4.6 mph - N/A   Partly Cloudy
3:54 AM 53.1 °F - 51.1 °F 93% 29.89 in 4.0 mi NNW 4.6 mph - N/A   Partly Cloudy
4:42 AM 51.8 °F - 50.0 °F 94% 29.91 in 2.0 mi NNW 4.6 mph - N/A   Mostly Cloudy
4:46 AM 51.8 °F - 50.0 °F 94% 29.91 in 0.8 mi NNW 4.6 mph - N/A   Mist
4:54 AM 52.0 °F - 50.0 °F 93% 29.89 in 0.8 mi NNW 4.6 mph - N/A   Mist
5:01 AM 51.8 °F - 50.0 °F 94% 29.91 in 2.0 mi North 4.6 mph - N/A   Mostly Cloudy
5:09 AM 51.8 °F - 50.0 °F 94% 29.91 in 4.0 mi North 3.5 mph - N/A   Scattered Clouds
5:54 AM 50.0 °F - 48.0 °F 93% 29.89 in 4.0 mi NW 3.5 mph - N/A   Clear
6:00 AM 50.0 °F - 48.2 °F 94% 29.91 in 2.5 mi NW 5.8 mph - N/A   Partly Cloudy
6:21 AM 50.0 °F - 48.2 °F 94% 29.91 in 3.0 mi NNW 4.6 mph - N/A   Partly Cloudy
6:54 AM 48.9 °F - 46.9 °F 93% 29.90 in 3.0 mi NW 3.5 mph - N/A   Scattered Clouds
6:56 AM 48.2 °F - 46.4 °F 93% 29.92 in 2.0 mi NW 3.5 mph - N/A   Mostly Cloudy
6:59 AM 48.2 °F - 46.4 °F 93% 29.92 in 0.8 mi NNW 3.5 mph - N/A   Mist
7:54 AM 50.0 °F - 48.9 °F 96% 29.91 in 0.2 mi Calm Calm - N/A Fog Fog
8:42 AM 55.4 °F - 53.6 °F 94% 29.92 in 2.0 mi Calm Calm - N/A   Mostly Cloudy
8:52 AM 55.4 °F - 53.6 °F 94% 29.92 in 3.0 mi Calm Calm - N/A   Scattered Clouds
8:54 AM 55.9 °F - 54.0 °F 93% 29.91 in 3.0 mi Calm Calm - N/A   Scattered Clouds
9:54 AM 63.0 °F - 55.9 °F 78% 29.91 in 10.0 mi SE 6.9 mph - N/A   Clear
10:54 AM 69.1 °F - 57.0 °F 65% 29.90 in 10.0 mi SSE 9.2 mph - N/A   Clear
11:54 AM 73.9 °F - 57.0 °F 55% 29.89 in 10.0 mi SE 10.4 mph 18.4 mph N/A   Clear
12:54 PM 78.1 °F - 57.0 °F 48% 29.85 in 10.0 mi SSE 10.4 mph 17.3 mph N/A   Partly Cloudy
1:54 PM 79.0 °F - 57.0 °F 47% 29.82 in 10.0 mi SE 12.7 mph 20.7 mph N/A   Clear
2:54 PM 80.1 °F 80.2 °F 55.9 °F 43% 29.79 in 10.0 mi South 12.7 mph 18.4 mph N/A   Clear
3:54 PM 81.0 °F 80.8 °F 55.9 °F 42% 29.77 in 10.0 mi SSE 12.7 mph - N/A   Partly Cloudy
4:54 PM 81.0 °F 80.7 °F 55.0 °F 41% 29.75 in 10.0 mi SE 15.0 mph 20.7 mph N/A   Clear
5:54 PM 80.1 °F 80.2 °F 55.9 °F 43% 29.73 in 10.0 mi SSE 12.7 mph 21.9 mph N/A   Clear
6:54 PM 75.9 °F - 55.9 °F 50% 29.72 in 10.0 mi SE 10.4 mph - N/A   Clear
7:54 PM 69.1 °F - 57.0 °F 65% 29.72 in 10.0 mi SE 8.1 mph - N/A   Clear
8:54 PM 64.9 °F - 57.0 °F 75% 29.74 in 10.0 mi SE 8.1 mph - N/A   Clear
9:54 PM 64.9 °F - 57.9 °F 78% 29.75 in 10.0 mi SE 5.8 mph - N/A   Clear
10:54 PM 64.9 °F - 59.0 °F 81% 29.75 in 10.0 mi SE 8.1 mph - N/A   Clear
11:54 PM 64.9 °F - 59.0 °F 81% 29.76 in 10.0 mi SE 6.9 mph - N/A   Clear